[[{"header":{"parameterUnit":"m.s-1","parameterCategory":1,"la1":30.2991,"la2":30.254,"lo1":-89.0895,"lo2":-89.0444,"dy":0.0017,"dx":0.0017,"nx":28,"ny":28,"refTime":"2025-05-24T21:00:00:Z","depth":0,"parameterNumber":2,"parameterNumberName":"U-component_of_WINDS"},"data":[0,0,0,0,0,0,0,0,0,0,0,0,0,0,0,0,0,0,0,0,0,0,0,0,0,0,0,0,0,0,0,0,0,0,0,0,0,0,0,0,0,0,0,0,0,0,0,0,0,0,0,0,0,0,0,0,0,0,0.5141,0.5142,0,0.5312,0.5314,0.5316,0.5395,0.5395,0.5395,0.5395,0.5578,0.5582,0.5587,0,0,0,0,0,0,0,0,0,0,0,0,0,0.4888,0.4892,0.514,0.5142,0.5145,0.5312,0.5314,0.5316,0.5396,0.5395,0.5395,0.5395,0.5576,0.5582,0.5588,0,0,0,0,0,0,0,0,0,0,0,0,0,0.5023,0.4894,0.514,0.5204,0.5211,0.5311,0.5314,0.5317,0.5396,0.5395,0.5395,0.5395,0.5574,0.5581,0.5589,0.564,0,0,0.5612,0.5615,0,0,0,0,0,0,0,0,0.5015,0.5032,0.5192,0.52,0.5208,0.5332,0.5292,0.5425,0.5396,0.5326,0.5395,0.5395,0.5496,0.551,0.5543,0.5648,0.5656,0.5612,0.5617,0.562,0.5622,0,0,0,0,0,0,0,0.5006,0.5025,0.5209,0.5195,0.5204,0.5227,0.5245,0.5318,0.5411,0.5332,0.5338,0.5357,0.5501,0.5536,0.5548,0.5659,0.5612,0.5619,0.5623,0.5626,0.5816,0.5817,0,0,0,0,0,0,0.4985,0.5017,0.5203,0.5214,0.5109,0.5231,0.5252,0.5293,0.541,0.5428,0.5357,0.536,0.5523,0.5539,0.5555,0.5623,0.562,0.5627,0.5631,0.5816,0.5816,0.5817,0,0,0,0,0,0,0.4979,0.5001,0.5196,0.5117,0.5143,0.5236,0.528,0.5296,0.5331,0.5429,0.5446,0.5375,0.5524,0.5544,0.5618,0.5631,0.563,0.5637,0.5815,0.5816,0.5817,0.576,0,0,0,0,0,0,0.4971,0.4998,0.5017,0.5117,0.5147,0.5254,0.5281,0.53,0.5343,0.5349,0.5451,0.5467,0.5525,0.5606,0.5625,0.5641,0.5643,0.5814,0.5815,0.5816,0.5761,0.5758,0.5756,0,0,0,0,0,0.4962,0.4995,0.5017,0.5039,0.5172,0.5254,0.5272,0.5336,0.5344,0.5364,0.5427,0.5464,0.5626,0.5613,0.5635,0.5653,0.5814,0.5815,0.5816,0.5762,0.5759,0.5756,0,0,0,0,0,0,0.4896,0.5009,0.5035,0.51,0.5167,0.5267,0.5295,0.533,0.5398,0.54,0.5479,0.5501,0.5568,0.5619,0.5602,0.571,0.5724,0.5729,0.5674,0.5672,0.567,0.5657,0.5649,0,0,0,0,0,0.4888,0.4943,0.5041,0.5089,0.5121,0.5202,0.524,0.5284,0.5357,0.5386,0.5454,0.5525,0.5593,0.5635,0.5703,0.5768,0.5793,0.5792,0.579,0.5787,0.5792,0.5832,0.5833,0.5821,0.5821,0.5821,0,0,0.4874,0.4943,0.4974,0.5077,0.5134,0.5192,0.5225,0.5285,0.5329,0.5396,0.5469,0.5521,0.5607,0.5676,0.5711,0.5721,0.58,0.5789,0.5786,0.5792,0.5833,0.5834,0.5835,0.5822,0.5822,0.5821,0,0,0.4878,0.4935,0.4982,0.5038,0.5123,0.5177,0.5188,0.5283,0.532,0.5395,0.5446,0.5501,0.5615,0.5674,0.5718,0.5745,0.5782,0.5765,0.5754,0.5792,0.5793,0.5794,0.5805,0.5808,0.5769,0.5769,0.5769,0,0.4851,0.4937,0.5003,0.5059,0.5104,0.5165,0.5215,0.5267,0.537,0.5401,0.5409,0.5554,0.5615,0.57,0.5707,0.5741,0.5758,0.5754,0.5787,0.5789,0.5791,0.5803,0.5806,0.5767,0.5767,0.5767,0.5767,0,0.49,0.496,0.4988,0.5084,0.5132,0.5185,0.526,0.5302,0.5341,0.5395,0.5471,0.5547,0.5631,0.5655,0.5694,0.5746,0.575,0.5772,0.5787,0.5789,0.5801,0.5806,0.5763,0.5764,0.5764,0.5765,0,0,0.4867,0.4998,0.5007,0.5052,0.515,0.5199,0.5256,0.5336,0.5371,0.544,0.5491,0.5586,0.5607,0.5658,0.5705,0.5738,0.5756,0.5757,0.576,0.5755,0.582,0.5803,0.5807,0.5781,0.5782,0.5783,0.5813,0,0.4885,0.4986,0.5047,0.5125,0.5182,0.5242,0.5292,0.5358,0.541,0.5468,0.5527,0.5593,0.5616,0.5647,0.5682,0.5746,0.5771,0.5745,0.5832,0.5834,0.5809,0.5813,0.5795,0.582,0.5818,0.5819,0.582,0,0.4919,0.4985,0.5068,0.5161,0.5187,0.5231,0.531,0.5364,0.5442,0.5478,0.5534,0.5581,0.5646,0.5656,0.5747,0.5728,0.5768,0.5805,0.5807,0.5818,0.5827,0.5825,0.5829,0.5833,0.5828,0.5827,0.5826,0,0.4887,0.4997,0.5062,0.5098,0.5208,0.5237,0.5285,0.5363,0.5407,0.5477,0.5508,0.5585,0.5627,0.5687,0.5755,0.5755,0.584,0.5855,0.5874,0.5872,0.5889,0.5887,0.59,0.5913,0.5913,0.5913,0.5913,0,0.4901,0.495,0.5049,0.5088,0.5146,0.5216,0.5272,0.5325,0.5393,0.5446,0.5503,0.5552,0.5638,0.5698,0.5752,0.582,0.5839,0.5871,0.5885,0.5866,0.5862,0.5894,0.5894,0.5914,0.5914,0.5914,0.5913,0,0.4875,0.4943,0.5017,0.5115,0.5141,0.5179,0.5264,0.5306,0.5361,0.5427,0.5447,0.5534,0.5608,0.5681,0.5781,0.5817,0.5885,0.5903,0.5858,0.5865,0.588,0.5878,0.5914,0.5923,0.5928,0.5928,0.5928,0,0.488,0.4919,0.502,0.5059,0.5104,0.5165,0.5211,0.5283,0.5329,0.5421,0.5453,0.553,0.5596,0.5711,0.5785,0.5862,0.5883,0.5891,0.5896,0.5876,0.5885,0.5882,0.5887,0.5889,0.5888,0.5888,0.5888,0,0.4881,0.4913,0.4975,0.505,0.5103,0.5165,0.523,0.5259,0.5344,0.5393,0.5468,0.5519,0.562,0.5697,0.5783,0.5835,0.5876,0.5885,0.5894,0.5876,0.5848,0.5864,0.5852,0.5884,0.5885,0.5885,0.5885,0.5885,0.4872,0.4909,0.4987,0.5055,0.5111,0.5171,0.5215,0.5275,0.5338,0.5425,0.5465,0.554,0.562,0.5739,0.579,0.5852,0.5863,0.5875,0.5878,0.588,0.5876,0.5837,0.5868,0.5868,0.5868,0.5869,0.5869,0,0.4877,0.4929,0.4991,0.508,0.5134,0.5166,0.524,0.5284,0.5349,0.5419,0.5482,0.5569,0.5644,0.5724,0.5804,0.5839,0.586,0.5858,0.5856,0.5868,0.5862,0.5846,0.5839,0.5839,0.5839,0.5839,0.5839,0.5839,0.4886,0.4951,0.4992,0.5087,0.5141,0.5214,0.5254,0.531,0.5366,0.546,0.5522,0.5572,0.5647,0.5733,0.5805,0.5826,0.5854,0.5846,0.5873,0.5866,0.5868,0.587,0.5856,0.5851,0.5851,0.5875,0.5875,0.5875]},{"header":{"parameterUnit":"m.s-1","parameterCategory":1,"la1":30.2991,"la2":30.254,"lo1":-89.0895,"lo2":-89.0444,"dy":0.0017,"dx":0.0017,"nx":28,"ny":28,"refTime":"2025-05-24T21:00:00:Z","depth":0,"parameterNumber":3,"parameterNumberName":"V-component_of_WINDS"},"data":[0,0,0,0,0,0,0,0,0,0,0,0,0,0,0,0,0,0,0,0,0,0,0,0,0,0,0,0,0,0,0,0,0,0,0,0,0,0,0,0,0,0,0,0,0,0,0,0,0,0,0,0,0,0,0,0,0,0,2.9565,2.9564,0,2.949,2.9489,2.9488,2.947,2.947,2.9471,2.9471,2.9386,2.9383,2.9381,0,0,0,0,0,0,0,0,0,0,0,0,0,2.9684,2.9682,2.9565,2.9564,2.9563,2.949,2.9489,2.9488,2.947,2.947,2.9471,2.9471,2.9387,2.9384,2.938,0,0,0,0,0,0,0,0,0,0,0,0,0,2.9623,2.9681,2.9565,2.9546,2.9543,2.9491,2.9489,2.9488,2.947,2.947,2.9471,2.9472,2.9388,2.9384,2.938,2.9339,0,0,2.9367,2.9366,0,0,0,0,0,0,0,0,2.9626,2.9619,2.9549,2.9547,2.9544,2.949,2.95,2.9438,2.9469,2.9497,2.9471,2.9472,2.9419,2.9413,2.9397,2.9335,2.9332,2.9367,2.9364,2.9363,2.9362,0,0,0,0,0,0,0,2.9631,2.9622,2.9535,2.9548,2.9545,2.9538,2.953,2.9488,2.9455,2.9495,2.9493,2.9485,2.9418,2.9401,2.9395,2.933,2.9367,2.9363,2.9361,2.9359,2.923,2.9229,0,0,0,0,0,0,2.964,2.9625,2.9538,2.9533,2.9588,2.9535,2.9526,2.9507,2.9455,2.9448,2.9485,2.9485,2.9407,2.9399,2.9392,2.934,2.9363,2.9359,2.9356,2.9231,2.923,2.9229,0,0,0,0,0,0,2.9642,2.9632,2.9541,2.9579,2.9567,2.9532,2.951,2.9505,2.9488,2.9448,2.9441,2.9474,2.9408,2.9397,2.9353,2.9337,2.9357,2.9353,2.9232,2.9231,2.9229,2.9236,0,0,0,0,0,0,2.9646,2.9633,2.9619,2.9579,2.9565,2.9506,2.9509,2.9503,2.9482,2.9481,2.9435,2.9429,2.9408,2.9359,2.9349,2.9331,2.935,2.9233,2.9231,2.923,2.9237,2.9235,2.9234,0,0,0,0,0,2.965,2.9623,2.9619,2.9608,2.9547,2.9505,2.9496,2.9475,2.948,2.9465,2.9439,2.943,2.934,2.9355,2.9343,2.9324,2.9234,2.9232,2.923,2.9238,2.9236,2.9234,0,0,0,0,0,0,2.9659,2.9617,2.9612,2.9571,2.9542,2.9502,2.9482,2.9474,2.944,2.944,2.9413,2.9403,2.9359,2.9337,2.9354,2.9281,2.9287,2.9282,2.9297,2.9295,2.9293,2.9298,2.9347,0,0,0,0,0,2.9657,2.9629,2.9592,2.956,2.9546,2.9516,2.9497,2.9484,2.9451,2.9438,2.9408,2.9375,2.9339,2.9316,2.928,2.9234,2.9223,2.9215,2.9214,2.9212,2.9208,2.918,2.9176,2.9222,2.9222,2.9222,0,0,2.9651,2.9625,2.9608,2.9561,2.9537,2.9506,2.9506,2.9473,2.9449,2.9431,2.9388,2.9366,2.9326,2.928,2.9259,2.926,2.9193,2.9209,2.9209,2.9205,2.9178,2.9173,2.917,2.922,2.922,2.9221,0,0,2.9624,2.9603,2.9573,2.9549,2.9513,2.9494,2.9487,2.9448,2.9433,2.939,2.9376,2.9345,2.9284,2.9257,2.9234,2.9197,2.9187,2.9186,2.9176,2.9149,2.9146,2.9142,2.9128,2.9123,2.9183,2.9183,2.9183,0,2.9621,2.9576,2.9558,2.9526,2.9504,2.9491,2.9459,2.9435,2.9389,2.9373,2.9377,2.93,2.9272,2.9219,2.921,2.9193,2.9182,2.9191,2.9148,2.9145,2.9141,2.9127,2.9121,2.9183,2.9183,2.9183,2.9183,0,2.9573,2.9542,2.9521,2.948,2.9456,2.9424,2.9398,2.9376,2.9365,2.9344,2.9299,2.9266,2.9223,2.921,2.9197,2.9154,2.9156,2.9154,2.9159,2.9137,2.9123,2.9118,2.9183,2.9183,2.9183,2.9183,0,0,2.9549,2.9499,2.9491,2.9472,2.9432,2.9406,2.9372,2.9333,2.9314,2.9282,2.9252,2.9201,2.9199,2.9174,2.9158,2.9135,2.9105,2.9135,2.9133,2.9129,2.9054,2.9055,2.905,2.9099,2.9098,2.9097,2.9057,0,2.9516,2.9459,2.9442,2.9392,2.9362,2.9349,2.9319,2.9289,2.9269,2.9239,2.9215,2.9179,2.918,2.9164,2.9141,2.9114,2.909,2.9117,2.9067,2.9066,2.9077,2.9042,2.9043,2.9007,2.9052,2.9051,2.905,0,2.9471,2.9441,2.939,2.9353,2.934,2.9314,2.9277,2.9248,2.9214,2.92,2.9173,2.9159,2.912,2.9129,2.9074,2.9092,2.9071,2.9054,2.9052,2.9046,2.9056,2.9033,2.8996,2.899,2.9041,2.9042,2.9043,0,2.9457,2.9404,2.9367,2.935,2.9307,2.9289,2.9269,2.9236,2.9213,2.9179,2.9164,2.9125,2.9104,2.9073,2.9047,2.9056,2.8994,2.9,2.8979,2.898,2.8966,2.8967,2.8923,2.8954,2.8954,2.8954,2.8955,0,2.9422,2.9391,2.936,2.9337,2.93,2.9279,2.9243,2.9222,2.9192,2.9163,2.9148,2.9119,2.9088,2.9055,2.9035,2.8991,2.8982,2.8968,2.8962,2.8969,2.897,2.8953,2.8954,2.8953,2.8953,2.8954,2.8954,0,2.94,2.9379,2.9337,2.93,2.9289,2.9264,2.9231,2.9206,2.9186,2.9148,2.9138,2.9105,2.9065,2.9037,2.8985,2.8971,2.8924,2.892,2.8937,2.8934,2.8914,2.8916,2.8856,2.8847,2.8886,2.8886,2.8886,0,2.9379,2.9355,2.9316,2.9297,2.9278,2.9246,2.9224,2.9201,2.9178,2.9137,2.9116,2.9077,2.9043,2.898,2.8949,2.8908,2.8902,2.8884,2.8895,2.8902,2.89,2.8901,2.8898,2.8882,2.8881,2.8881,2.8881,0,2.9342,2.9333,2.9303,2.9269,2.9244,2.9215,2.9186,2.917,2.9142,2.9116,2.9077,2.9052,2.9,2.8959,2.8916,2.8892,2.8881,2.8878,2.887,2.8876,2.8886,2.8879,2.8931,2.8879,2.8879,2.8879,2.8879,2.8879,2.9319,2.9297,2.9266,2.9233,2.921,2.9183,2.9158,2.9136,2.9103,2.9062,2.9049,2.9008,2.8972,2.8913,2.8889,2.8854,2.8855,2.8845,2.8842,2.884,2.8839,2.8893,2.8846,2.8846,2.8846,2.8847,2.8847,0,2.9281,2.9261,2.9231,2.9192,2.9165,2.9161,2.9128,2.9105,2.907,2.9039,2.9007,2.8961,2.8922,2.8888,2.8847,2.8825,2.8819,2.8815,2.8815,2.881,2.8841,2.8852,2.8821,2.8821,2.8821,2.8821,2.8821,2.8821,2.9258,2.922,2.9207,2.9156,2.9136,2.9098,2.9079,2.9053,2.9029,2.8979,2.8947,2.8927,2.8894,2.885,2.8813,2.8804,2.8788,2.8785,2.8775,2.8805,2.8808,2.881,2.882,2.8782,2.8782,2.8745,2.8745,2.8745]}]]